This is the latest recevied weather packets stored in our database for station/object W2TAO. If no packets are shown the sender has not sent any weather packets the latest 10 day(s).
| Time | Temp. | Humidity | Pressure | Rain* | Wind** | Luminosity | Snow |
|---|---|---|---|---|---|---|---|
| 1777781877 | 5° C | 66% | 1013.4 hPa | 0 mm | - | 0 W/m² | - |
| 1777781575 | 5° C | 64% | 1013.1 hPa | 0 mm | - | 0 W/m² | - |
| 1777781272 | 5° C | 70% | 1013.5 hPa | 0 mm | - | 0 W/m² | - |
| 1777780970 | 5° C | 72% | 1013.3 hPa | 0 mm | - | 0 W/m² | - |
| 1777780666 | 5° C | 71% | 1013.1 hPa | 0 mm | - | 0 W/m² | - |
| 1777780364 | 4.44° C | 75% | 1013.3 hPa | 0 mm | - | 0 W/m² | - |
| 1777780061 | 4.44° C | 75% | 1013.2 hPa | 0 mm | - | 0 W/m² | - |
| 1777779758 | 4.44° C | 73% | 1013.4 hPa | 0 mm | - | 0 W/m² | - |
| 1777779455 | 4.44° C | 75% | 1013.2 hPa | 0 mm | - | 0 W/m² | - |
| 1777779153 | 4.44° C | 70% | 1013.4 hPa | 0 mm | - | 0 W/m² | - |
| 1777778851 | 3.89° C | 73% | 1013.3 hPa | 0 mm | - | 0 W/m² | - |
| 1777778549 | 3.89° C | 73% | 1013.3 hPa | 0 mm | - | 0 W/m² | - |
| 1777778246 | 3.89° C | 78% | 1013.3 hPa | 0 mm | - | 0 W/m² | - |
| 1777777944 | 3.89° C | 76% | 1013.4 hPa | 0 mm | - | 0 W/m² | - |
| 1777777640 | 3.89° C | 75% | 1013.4 hPa | 0 mm | - | 0 W/m² | - |
| 1777777336 | 3.89° C | 74% | 1013.3 hPa | 0 mm | - | 0 W/m² | - |
| 1777777034 | 3.89° C | 74% | 1013.5 hPa | 0 mm | - | 0 W/m² | - |
| 1777776731 | 3.89° C | 75% | 1013.5 hPa | 0 mm | - | 0 W/m² | - |
| 1777776427 | 3.89° C | 75% | 1013.4 hPa | 0 mm | - | 0 W/m² | - |
| 1777776125 | 3.89° C | 74% | 1013.6 hPa | 0 mm | - | 0 W/m² | - |
| 1777775822 | 3.89° C | 76% | 1013.5 hPa | 0 mm | - | 0 W/m² | - |
| 1777775518 | 4.44° C | 75% | 1013.6 hPa | 0 mm | - | 0 W/m² | - |
| 1777775214 | 4.44° C | 73% | 1013.5 hPa | 0 mm | - | 0 W/m² | - |
| 1777774914 | 4.44° C | 70% | 1013.7 hPa | 0 mm | - | 0 W/m² | - |
| 1777774611 | 4.44° C | 70% | 1013.7 hPa | 0 mm | - | 0 W/m² | - |
* Rain latest hour (hover to see other rain measurements)
** Current wind speed in m/s (hover to see current wind gust speed)